This demonstration page uses our WeatherBlox Daily Observations layout. Learn more.

Left ArrowRight Arrow

Hourly Observations for December 26, 2018

Temp ( °F °C ) Dew Point ( °F °C ) Humidity (%) Winds ( mph kmh ) Pressure ( in mb ) Visibility ( mi km ) Precip ( " mm )
12:15 am 00:15 Cloudy with Mist and Fog 33 0.4 33 0.4 100 100 E 10 17 30.24 1024 1 1 N/A
12:35 am 00:35 Cloudy with Mist and Fog 33 0.3 33 0.3 100 100 E 10 17 30.24 1024 1 1 N/A
12:55 am 00:55 Cloudy with Mist and Fog 33 0.5 33 0.5 100 100 E 7 11 30.24 1024 1 2 N/A
1:15 am 01:15 Cloudy with Mist and Fog 33 0.5 33 0.5 100 100 E 9 15 30.24 1024 2 3 N/A
1:35 am 01:35 Cloudy with Drizzle 33 0.6 33 0.6 100 100 E 10 17 30.24 1024 2 3 N/A
1:55 am 01:55 Cloudy with Light Rain 33 0.7 33 0.7 100 100 E 13 20 30.24 1024 3 4 N/A
2:15 am 02:15 Cloudy with Rain 33 0.8 33 0.8 100 100 E 10 17 30.21 1023 3 5 N/A
2:35 am 02:35 Cloudy with Light Rain 33 0.7 33 0.7 100 100 E 10 17 30.18 1022 3 5 0.02 0.51
2:55 am 02:55 Cloudy with Mist and Fog 33 0.6 33 0.6 100 100 E 13 20 30.18 1022 3 5 0.02 0.51
3:15 am 03:15 Cloudy with Mist and Fog 33 0.6 33 0.6 100 100 E 10 17 30.18 1022 3 5 N/A
3:35 am 03:35 Cloudy with Drizzle 33 0.7 33 0.7 100 100 E 15 24 30.15 1021 4 6 N/A
3:55 am 03:55 Cloudy with Mist and Fog 33 0.8 33 0.8 100 100 E 13 20 30.15 1021 4 6 N/A
4:15 am 04:15 Cloudy with Mist and Fog 33 0.8 33 0.8 100 100 E 12 19 30.12 1020 3 5 N/A
4:35 am 04:35 Cloudy with Mist and Fog 33 0.8 33 0.8 100 100 E 13 20 30.12 1020 3 5 N/A
4:55 am 04:55 Cloudy with Light Rain 33 0.7 33 0.7 100 100 E 12 19 30.12 1020 1 2 N/A
5:15 am 05:15 Cloudy with Light Rain 33 0.6 33 0.6 100 100 E 13 20 30.09 1019 2 2 N/A
5:35 am 05:35 Cloudy with Mist and Fog 33 0.7 33 0.7 100 100 E 15 24 30.09 1019 2 2 N/A
5:55 am 05:55 Cloudy with Mist and Fog 33 0.8 33 0.8 100 100 E 13 20 30.09 1019 3 4 N/A
6:15 am 06:15 Cloudy with Mist and Fog 33 0.8 33 0.8 100 100 E 13 20 30.09 1019 3 5 N/A
6:35 am 06:35 Cloudy with Light Rain 33 0.7 33 0.7 100 100 E 9 15 30.06 1018 3 4 N/A
6:55 am 06:55 Cloudy with Drizzle 33 0.8 33 0.8 100 100 ENE 6 9 30.09 1019 3 5 N/A
7:15 am 07:15 Cloudy with Light Rain 33 0.8 33 0.8 100 100 E 9 15 30.06 1018 3 5 N/A
7:35 am 07:35 Cloudy with Rain 33 0.8 33 0.8 100 100 E 12 19 30.06 1018 2 3 0.05 1.27
7:55 am 07:55 Cloudy with Light Wintry Mix 34 0.9 34 0.9 100 100 E 9 15 30.06 1018 2 3 0.16 4.06
8:15 am 08:15 Cloudy with Light Rain 34 1 34 1 100 100 N N/A 30.09 1019 2 3 0.06 1.52
8:35 am 08:35 Cloudy with Light Rain 34 1.1 34 1.1 100 100 E 10 17 30.06 1018 4 6 0.09 2.29
8:55 am 08:55 Cloudy with Light Rain 34 1.3 34 1.3 100 100 E 8 13 30.06 1018 3 5 0.11 2.79
9:15 am 09:15 Cloudy with Rain 34 1.3 34 1.3 100 100 E 6 9 30.06 1018 2 3 0.01 0.25
9:35 am 09:35 Cloudy with Mist and Fog 34 1.3 34 1.3 100 100 ENE 6 9 30.06 1018 4 6 0.01 0.25
9:55 am 09:55 Cloudy with Mist and Fog 35 1.4 35 1.4 100 100 E 7 11 30.06 1018 2 3 0.01 0.25
10:15 am 10:15 Cloudy with Mist and Fog 35 1.6 35 1.6 100 100 E 7 11 30.06 1018 2 2 N/A
10:35 am 10:35 Cloudy with Mist and Fog 35 1.7 35 1.7 100 100 E 10 17 30.03 1017 2 2 N/A
10:55 am 10:55 Cloudy with Mist and Fog 35 1.7 35 1.7 100 100 E 7 11 30.03 1017 2 3 N/A
11:15 am 11:15 Cloudy with Mist and Fog 35 1.8 35 1.8 100 100 E 8 13 30.00 1016 1 2 N/A
11:35 am 11:35 Cloudy with Fog 36 2 36 2 100 100 E 7 11 29.94 1014 1 1 N/A
11:55 am 11:55 Cloudy with Mist and Fog 36 2.2 36 2.2 100 100 E 8 13 29.94 1014 1 1 N/A
12:15 pm 12:15 Cloudy with Fog 36 2.4 36 2.4 100 100 E 7 11 29.91 1013 1 1 N/A
12:35 pm 12:35 Cloudy with Fog 37 2.5 37 2.5 100 100 E 8 13 29.88 1012 1 1 N/A
12:55 pm 12:55 Cloudy with Light Rain 37 2.7 37 2.7 100 100 E 9 15 29.85 1011 1 1 N/A
1:15 pm 13:15 Cloudy with Light Rain 37 2.8 37 2.8 100 100 E 8 13 29.85 1011 1 2 0.03 0.76
1:35 pm 13:35 Cloudy with Rain 37 2.7 37 2.7 100 100 E 10 17 29.85 1011 2 3 0.05 1.27
1:55 pm 13:55 Cloudy with Heavy Rain 37 2.7 37 2.7 100 100 E 3 6 29.85 1011 1 2 0.11 2.79
2:15 pm 14:15 Cloudy with Heavy Rain 37 2.6 37 2.6 100 100 E 8 13 29.85 1011 2 3 0.07 1.78
2:35 pm 14:35 Cloudy with Heavy Rain 37 2.6 37 2.6 100 100 ENE 5 7 29.85 1011 2 3 0.17 4.32
2:55 pm 14:55 Cloudy with Heavy Rain 36 2.3 36 2.3 100 100 NE 6 9 29.85 1011 2 2 0.29 7.37
3:15 pm 15:15 Cloudy with Heavy Rain 36 2.2 36 2.2 100 100 NNE 5 7 29.85 1011 1 2 0.11 2.79
3:35 pm 15:35 Cloudy with Heavy Rain 36 2.3 36 2.3 100 100 NE 5 7 29.85 1011 2 2 0.21 5.33
3:55 pm 15:55 Cloudy with Rain 37 2.5 37 2.5 100 100 NNW 3 6 29.85 1011 2 3 0.29 7.37
4:15 pm 16:15 Cloudy with Heavy Rain 37 2.7 37 2.7 100 100 NE 8 13 29.85 1011 2 2 0.10 2.54
4:35 pm 16:35 Cloudy with Rain 37 3 37 3 100 100 NNE 8 13 29.85 1011 4 6 0.18 4.57
4:55 pm 16:55 Cloudy with Light Rain 37 3 37 3 100 100 NE 8 13 29.83 1010 7 11 0.21 5.33
5:15 pm 17:15 Cloudy with Light Rain 37 3 37 3 100 100 N 3 6 29.83 1010 7 11 0.01 0.25
5:35 pm 17:35 Cloudy with Rain 37 3 37 3 100 100 NE 7 11 29.83 1010 4 6 0.04 1.02
5:55 pm 17:55 Cloudy with Light Rain 38 3.1 38 3.1 100 100 NE 7 11 29.80 1009 2 3 0.05 1.27
6:15 pm 18:15 Cloudy with Rain 38 3.2 38 3.2 100 100 NW 6 9 29.83 1010 2 3 0.02 0.51
6:35 pm 18:35 Cloudy with Heavy Rain 38 3.2 38 3.2 100 100 NNW 9 15 29.83 1010 3 5 0.10 2.54
6:55 pm 18:55 Cloudy with Rain 37 3 37 3 100 100 NNW 12 19 29.80 1009 3 5 0.19 4.83
7:15 pm 19:15 Cloudy with Rain 37 2.6 37 2.6 100 100 N 10 17 29.80 1009 4 6 0.05 1.27
7:35 pm 19:35 Cloudy with Rain 37 2.5 37 2.5 100 100 N 15 24 29.80 1009 4 6 0.09 2.29
7:55 pm 19:55 Cloudy with Light Rain 37 2.5 37 2.5 100 100 N 14 22 29.77 1008 10 16 0.10 2.54
8:15 pm 20:15 Cloudy with Light Rain 37 2.5 37 2.5 100 100 NNE 14 22 29.77 1008 5 8 0.02 0.51
8:35 pm 20:35 Cloudy with Rain 37 2.5 37 2.5 100 100 NNE 13 20 29.77 1008 7 11 0.03 0.76
8:55 pm 20:55 Cloudy with Rain 37 2.5 37 2.5 100 100 N 13 20 29.77 1008 5 8 0.03 0.76
9:15 pm 21:15 Cloudy with Rain 37 2.5 37 2.5 100 100 N 10 17 29.77 1008 3 5 0.01 0.25
9:35 pm 21:35 Cloudy with Rain 36 2.2 36 2.2 100 100 N 13 20 29.77 1008 3 4 0.04 1.02
9:55 pm 21:55 Cloudy with Rain 36 2.1 36 2.1 100 100 N 17 28 29.77 1008 3 5 0.06 1.52
10:15 pm 22:15 Cloudy with Rain 36 2 36 2 100 100 N 16 26 29.77 1008 3 4 0.02 0.51
10:35 pm 22:35 Cloudy with Light Rain 35 1.8 35 1.8 100 100 N 17 28 29.77 1008 3 5 0.05 1.27
10:55 pm 22:55 Cloudy with Light Rain 35 1.8 35 1.8 100 100 N 16 26 29.77 1008 4 6 0.06 1.52
11:15 pm 23:15 Cloudy with Light Rain 35 1.7 35 1.7 100 100 N 21 33 29.77 1008 3 5 0.02 0.51
11:35 pm 23:35 Cloudy with Light Rain 35 1.6 35 1.6 100 100 N 24 39 29.74 1007 3 5 0.03 0.76
11:55 pm 23:55 Cloudy with Light Rain 35 1.5 35 1.5 100 100 N 25 41 29.74 1007 4 6 0.04 1.02

Powered by AerisWeather